Location: Ozark
(37.5425°N, 88.7628°W)
Time: 06:40:57
(UTC+00:00)

STARLINK-1038 - Pass Details

Date: 26 January 2020
Orbit: 548 x 551 km, 53.0° (Epoch: 28 February)

Event Time Altitude Azimuth Distance (km) Brightness Sun altitude
Exits shadow 12:01:49 11° 244° (WSW) 1,734 5.7 -12.4°
Maximum altitude 12:05:39 54° 321° (NW) 666 3.7 -11.7°
Drops below altitude 10° 12:09:44 10° 40° (NE) 1,825 6.6 -10.9°
Sets 12:12:00 0° 45° (NE) 2,722 7.6 -10.4°
